sat.trackr.live / text

‹ back to catalog

ONEWEB-0345

NORAD 49211 · 2021-083AB

PAYLOAD ACTIVE UNKNOWN

§ Identity

Operator
Country
UK
Launch date
2021-09-14
Launch site
TYMSC
Launch vehicle
Mass (kg)
RCS (m²)

Purposes: comms

External: N2YO · Heavens-Above · Gunter

§ Orbital elements

Epoch: 2026-09-14T13:03:11.557728Z

Period
109.63 min
Inclination
87.8924°
Eccentricity
0.0001613
Mean motion
13.13469753 rev/d
Perigee alt
1,208.5 km
Apogee alt
1,211.0 km
Semi-major
7,587.9 km
B*
-7.7740e-4
RAAN
302.4483°
Arg perigee
98.5986°
Mean anomaly
261.5326°
Rev number
24,263

§ Raw data

ONEWEB-03451 49211U 21083AB  26257.54388377 -.00000271  00000+0 -77740-3 0  99972 49211  87.8924 302.4483 0001613  98.5986 261.5326 13.13469753242631

JSON: /api/v1/satellites/49211 · /tle

For live sub-satellite position, see the globe view (requires WebGL).

§ Visibility from observer

Set your observer location to see the next 7 days of passes ≥ 10°. The values pass through the URL so the page stays shareable.

No JS? Fill the form by hand. The geolocation button needs JavaScript.